EN

Hourly Weather La Courneuve

Today, 30 July, Friday

Time Temperature Precipitation Wind Pressure Humidity
00:00 +17°C° 0 mm 2 mps 754 mmHg 68%
01:00 +17°C° 0 mm 2 mps 753 mmHg 71%
02:00 +17°C° 0 mm 2 mps 753 mmHg 73%
03:00 +16°C° 0 mm 2 mps 753 mmHg 76%
04:00 +16°C° 0 mm 3 mps 753 mmHg 76%
05:00 +17°C° 0 mm 3 mps 753 mmHg 75%
06:00 +17°C° 0 mm 4 mps 753 mmHg 75%
07:00 +18°C° 0 mm 4 mps 753 mmHg 73%
08:00 +19°C° 0 mm 5 mps 752 mmHg 71%
09:00 +20°C° 0 mm 6 mps 752 mmHg 69%
10:00 +21°C° 0.1 mm 6 mps 752 mmHg 62%
11:00 +22°C° 0.1 mm 6 mps 752 mmHg 55%
12:00 +23°C° 0 mm 7 mps 752 mmHg 47%
13:00 +23°C° 0 mm 7 mps 752 mmHg 45%
14:00 +24°C° 0 mm 7 mps 752 mmHg 43%
15:00 +24°C° 0 mm 7 mps 752 mmHg 41%
16:00 +23°C° 0 mm 7 mps 752 mmHg 44%
17:00 +22°C° 0 mm 6 mps 753 mmHg 48%
18:00 +21°C° 0 mm 6 mps 753 mmHg 51%
19:00 +20°C° 0 mm 5 mps 753 mmHg 54%
20:00 +19°C° 0 mm 4 mps 753 mmHg 58%
21:00 +18°C° 0 mm 4 mps 754 mmHg 61%
22:00 +17°C° 0 mm 4 mps 754 mmHg 64%
23:00 +17°C° 0 mm 4 mps 754 mmHg 68%

Tomorrow, 31 July, Saturday

Time Temperature Precipitation Wind Pressure Humidity
00:00 +16°C° 0 mm 3 mps 754 mmHg 71%
01:00 +16°C° 0 mm 3 mps 754 mmHg 75%
02:00 +14°C° 0 mm 3 mps 754 mmHg 80%
03:00 +13°C° 0 mm 3 mps 754 mmHg 84%
04:00 +14°C° 0 mm 3 mps 754 mmHg 84%
05:00 +14°C° 0 mm 3 mps 754 mmHg 84%
06:00 +14°C° 0 mm 3 mps 754 mmHg 84%
07:00 +16°C° 0 mm 3 mps 754 mmHg 78%
08:00 +17°C° 0 mm 3 mps 754 mmHg 72%
09:00 +19°C° 0 mm 3 mps 755 mmHg 67%
10:00 +19°C° 0 mm 3 mps 754 mmHg 65%
11:00 +20°C° 0 mm 3 mps 754 mmHg 62%
12:00 +20°C° 0 mm 3 mps 754 mmHg 60%
13:00 +21°C° 0 mm 3 mps 754 mmHg 57%
14:00 +22°C° 0 mm 3 mps 754 mmHg 54%
15:00 +22°C° 0 mm 3 mps 754 mmHg 51%
16:00 +22°C° 0.1 mm 3 mps 754 mmHg 55%
17:00 +21°C° 0.1 mm 2 mps 754 mmHg 58%
18:00 +20°C° 0.1 mm 2 mps 754 mmHg 61%
19:00 +19°C° 0 mm 2 mps 754 mmHg 66%
20:00 +19°C° 0 mm 1 mps 754 mmHg 71%
21:00 +18°C° 0 mm 1 mps 754 mmHg 76%
22:00 +16°C° 0 mm 1 mps 754 mmHg 78%
23:00 +16°C° 0 mm 1 mps 754 mmHg 81%

Day after tomorrow, 1 August, Sunday

Time Temperature Precipitation Wind Pressure Humidity
00:00 +15°C° 0 mm 1 mps 754 mmHg 84%
01:00 +15°C° 0 mm 1 mps 754 mmHg 85%
02:00 +15°C° 0 mm 1 mps 754 mmHg 86%
03:00 +14°C° 0 mm 1 mps 754 mmHg 87%
04:00 +15°C° 0 mm 1 mps 754 mmHg 85%
05:00 +15°C° 0 mm 1 mps 754 mmHg 83%
06:00 +15°C° 0 mm 1 mps 754 mmHg 82%
07:00 +17°C° 0 mm 2 mps 754 mmHg 74%
08:00 +19°C° 0 mm 2 mps 754 mmHg 66%
09:00 +20°C° 0 mm 3 mps 754 mmHg 59%
10:00 +21°C° 0.1 mm 3 mps 754 mmHg 55%
11:00 +22°C° 0.1 mm 3 mps 754 mmHg 51%
12:00 +23°C° 0.1 mm 4 mps 754 mmHg 46%
13:00 +24°C° 0 mm 3 mps 754 mmHg 48%
14:00 +22°C° 0 mm 3 mps 754 mmHg 50%
15:00 +22°C° 0 mm 3 mps 754 mmHg 52%
16:00 +22°C° 0 mm 3 mps 754 mmHg 54%
17:00 +23°C° 0 mm 2 mps 754 mmHg 56%
18:00 +21°C° 0 mm 2 mps 754 mmHg 58%
19:00 +21°C° 0.1 mm 1 mps 755 mmHg 63%
20:00 +20°C° 0.1 mm 1 mps 755 mmHg 68%
21:00 +19°C° 0.1 mm 1 mps 755 mmHg 73%
22:00 +18°C° 0 mm 1 mps 755 mmHg 75%
23:00 +16°C° 0 mm 0 mps 756 mmHg 78%

2 August, Monday

Time Temperature Precipitation Wind Pressure Humidity
00:00 +15°C° 0 mm 0 mps 756 mmHg 80%
01:00 +15°C° 0 mm 0 mps 756 mmHg 82%
02:00 +15°C° 0 mm 1 mps 756 mmHg 84%
03:00 +15°C° 0 mm 1 mps 756 mmHg 85%
04:00 +15°C° 0 mm 1 mps 756 mmHg 84%
05:00 +16°C° 0 mm 1 mps 756 mmHg 83%
06:00 +16°C° 0 mm 1 mps 756 mmHg 81%
07:00 +19°C° 0 mm 1 mps 756 mmHg 74%
08:00 +20°C° 0 mm 2 mps 757 mmHg 67%
09:00 +21°C° 0 mm 2 mps 757 mmHg 61%
10:00 +22°C° 0.3 mm 3 mps 757 mmHg 59%
11:00 +22°C° 0.3 mm 3 mps 756 mmHg 57%
12:00 +23°C° 0.3 mm 4 mps 756 mmHg 56%
13:00 +23°C° 0.3 mm 4 mps 756 mmHg 57%
14:00 +23°C° 0.3 mm 4 mps 756 mmHg 58%
15:00 +22°C° 0.3 mm 4 mps 756 mmHg 59%
16:00 +22°C° 0.1 mm 3 mps 756 mmHg 62%
17:00 +21°C° 0.1 mm 2 mps 756 mmHg 65%
18:00 +21°C° 0.1 mm 1 mps 756 mmHg 68%
19:00 +21°C° 0.1 mm 1 mps 756 mmHg 71%
20:00 +20°C° 0.1 mm 1 mps 756 mmHg 75%
21:00 +17°C° 0.1 mm 0 mps 756 mmHg 79%
22:00 +19°C° 0.8 mm 1 mps 756 mmHg 83%
23:00 +18°C° 0.8 mm 1 mps 756 mmHg 86%

3 August, Tuesday

Time Temperature Precipitation Wind Pressure Humidity
00:00 +16°C° 0.8 mm 1 mps 756 mmHg 90%
01:00 +16°C° 0.9 mm 1 mps 756 mmHg 91%
02:00 +16°C° 0.9 mm 2 mps 756 mmHg 92%
03:00 +15°C° 0.9 mm 2 mps 756 mmHg 93%
04:00 +15°C° 0.5 mm 2 mps 756 mmHg 92%
05:00 +15°C° 0.5 mm 1 mps 756 mmHg 91%
06:00 +15°C° 0.5 mm 1 mps 756 mmHg 89%
07:00 +16°C° 0 mm 1 mps 756 mmHg 81%
08:00 +17°C° 0 mm 2 mps 756 mmHg 73%
09:00 +19°C° 0 mm 2 mps 757 mmHg 65%
10:00 +20°C° 0 mm 2 mps 756 mmHg 58%
11:00 +21°C° 0 mm 2 mps 756 mmHg 50%
12:00 +24°C° 0 mm 3 mps 756 mmHg 42%
13:00 +24°C° 0 mm 3 mps 755 mmHg 41%
14:00 +25°C° 0 mm 2 mps 755 mmHg 39%
15:00 +25°C° 0 mm 2 mps 755 mmHg 38%
16:00 +24°C° 0 mm 2 mps 755 mmHg 42%
17:00 +24°C° 0 mm 2 mps 755 mmHg 46%
18:00 +23°C° 0 mm 1 mps 754 mmHg 50%
19:00 +21°C° 0 mm 2 mps 754 mmHg 54%
20:00 +20°C° 0 mm 2 mps 754 mmHg 59%
21:00 +19°C° 0 mm 3 mps 754 mmHg 63%
22:00 +18°C° 0.7 mm 2 mps 754 mmHg 73%
23:00 +17°C° 0.7 mm 2 mps 754 mmHg 82%

4 August, Wednesday

Time Temperature Precipitation Wind Pressure Humidity
00:00 +16°C° 0.7 mm 2 mps 753 mmHg 92%
01:00 +16°C° 1.1 mm 2 mps 753 mmHg 93%
02:00 +16°C° 1.1 mm 2 mps 753 mmHg 93%
03:00 +14°C° 1.1 mm 3 mps 752 mmHg 94%
04:00 +15°C° 0.7 mm 2 mps 752 mmHg 94%
05:00 +15°C° 0.7 mm 2 mps 752 mmHg 95%
06:00 +15°C° 0.7 mm 2 mps 752 mmHg 95%
07:00 +15°C° 0.7 mm 2 mps 751 mmHg 95%
08:00 +16°C° 0.7 mm 2 mps 751 mmHg 96%
09:00 +16°C° 0.7 mm 2 mps 751 mmHg 96%
10:00 +16°C° 1.1 mm 2 mps 750 mmHg 96%
11:00 +16°C° 1.1 mm 2 mps 750 mmHg 96%
12:00 +17°C° 1.1 mm 2 mps 750 mmHg 96%
13:00 +16°C° 0.4 mm 3 mps 751 mmHg 94%
14:00 +16°C° 0.4 mm 3 mps 751 mmHg 93%
15:00 +15°C° 0.4 mm 4 mps 752 mmHg 92%
16:00 +15°C° 0.1 mm 4 mps 752 mmHg 91%
17:00 +15°C° 0.1 mm 4 mps 752 mmHg 90%
18:00 +17°C° 0.1 mm 4 mps 753 mmHg 88%
19:00 +15°C° 0 mm 4 mps 753 mmHg 89%
20:00 +15°C° 0 mm 4 mps 754 mmHg 91%
21:00 +14°C° 0 mm 4 mps 754 mmHg 92%
22:00 +14°C° 0 mm 4 mps 754 mmHg 93%
23:00 +13°C° 0 mm 3 mps 754 mmHg 94%
Show more